Regional Weather Roundup
Issued by NWS Grand Forks, ND

Home | Current Version | Previous Version | Graphics & Text | Print | Product List | Glossary On
Versions: 1 2 3 4 5 6 7 8 9 10 11 12 13 14 15 16 17 18 19 20 21 22 23 24 25 26 27 28 29 30 31 32 33 34 35 36 37 38 39 40 41 42 43 44 45 46 47 48 49 50
000
ASUS43 KFGF 270010
RWRFGF
PRAIRIE TO PINES  WEATHER ROUNDUP
NATIONAL WEATHER SERVICE EASTERN NORTH DAKOTA/GRAND FORKS ND
600 PM CST THU FEB 26 2015

 **SATELLITE DATA USED TO AUGMENT SKY COVER AT AUTOMATED STATIONS**
 *****  WEATHER ACROSS EASTERN NORTH DAKOTA  *****

CITY           SKY/WX    TMP DP  RH WIND       PRES   REMARKS
GRAND FORKS    CLEAR      5  -6  60 NW8       30.51F WCI  -8
6HR MIN TEMP:   3; 6HR MAX TEMP:   9; 6HR PCP: TRACE;

GRAND FRKS AFB CLEAR      5  -6  58 NW9       30.51F WCI  -9
GRAND FRKS NWS   N/A      5 N/A N/A NW13        N/A  WCI -12
DEVILS LAKE    CLEAR    N/A N/A N/A MISG        N/A
FARGO          PTCLDY     6  -4  63 NW6       30.53S WCI  -4
WAHPETON ARPT  PTCLDY     5  -6  61 NW14      30.53S WCI -12
$$

 ***** WEATHER ACROSS CENTRAL AND WESTERN NORTH DAKOTA  *****

CITY           SKY/WX    TMP DP  RH WIND       PRES   REMARKS
BISMARCK       CLEAR      8  -5  55 N8        30.53S WCI  -4
6HR MIN TEMP:   3; 6HR MAX TEMP:  10;

MINOT          CLEAR      2  -9  60 W13       30.51F WCI -15
6HR MIN TEMP:   0; 6HR MAX TEMP:   6;

JAMESTOWN      CLEAR      1  -9  62 NW13      30.50S WCI -17
6HR MIN TEMP:  -1; 6HR MAX TEMP:   3; 6HR PCP: TRACE;

MINOT AFB      CLEAR     -1  -8  71 NW9       30.51F WCI -16
GARRISON         N/A      2  -6  69 NW8       30.50F WCI -12
WILLISTON      CLEAR      8  -6  52 N3        30.51F
6HR MIN TEMP:   2; 6HR MAX TEMP:  10;

DICKINSON      CLEAR      9  -5  53 N6        30.42F WCI  -1
6HR MIN TEMP:   4; 6HR MAX TEMP:  11;

HETTINGER      CLEAR     10  -3  55 N6        30.43F WCI   0
6HR MIN TEMP:   4; 6HR MAX TEMP:  12;

$$

 *****  OTHER AIRPORT OBSERVATIONS IN OUR AREA  *****

CITY           SKY/WX    TMP DP  RH WIND       PRES   REMARKS
WALHALLA       HAZE       5  -8  56 NW6       30.50S VSB 1/4 WCI  -6
GRAFTON AIRPOR NOT AVBL
VALLEY CITY AR FAIR       1  -6  71 NW12      30.50S WCI -15
CANDO          FAIR       0  -8  71 NW9       30.49S WCI -16
CAVALIER APRT  FAIR       5  -4  66 W8        30.51R WCI  -8
GWINNER        CLEAR      5  -6  61 NW10      30.53S WCI -10
SHEYENNE NWR     N/A      4  -8  57 NW6       29.95S WCI  -7
ROLLA          FAIR       5  -9  51 NW12      30.44F WCI -11
 ***** THE ABOVE OBSERVATIONS ARE NON NWS ARE NOT QUALITY
       CONTROLLED AND MAY MIS-REPORT RAIN FOR SNOW...
$$

  *****  WEATHER ACROSS NORTHERN MINNESOTA  *****

CITY           SKY/WX    TMP DP  RH WIND       PRES   REMARKS
FLAG ISLAND    CLEAR      7  -9  47 NW7       30.38S WCI  -5
WARROAD        CLEAR      3  -8  60 W13       30.42S WCI -14
ROSEAU         CLEAR      3  -8  60 W10       30.44S WCI -12
HALLOCK        NOT AVBL
THF RVR FALLS  CLEAR      1  -6  71 NW6       30.46F WCI -10
6HR MIN TEMP:  -4; 6HR MAX TEMP:   3;

BAUDETTE       CLEAR      3 -11  52 W8        30.38S WCI -10
6HR MIN TEMP:  -4; 6HR MAX TEMP:   6;

WASKISH        CLEAR      1  -8  66 W8        30.41S WCI -12
CROOKSTON      CLEAR      5  -2  72 NW6       30.52S WCI  -6
STEPHEN NDAWN    N/A      3  -4  72 NW5         N/A  WCI  -6
GREENBUSH NDAW   N/A      1  -6  71 MISG        N/A
$$
  *****  WEATHER ACROSS CENTRAL AND WEST MINNESOTA  *****

CITY           SKY/WX    TMP DP  RH WIND       PRES   REMARKS
FOSSTON        CLEAR      0  -9  65 W6        30.46F WCI -12
BEMIDJI        CLEAR     -1 -11  63 W10       30.42R WCI -18
PARK RAPIDS    CLEAR      1 -11  57 NW13      30.41R WCI -17
6HR MIN TEMP:   0; 6HR MAX TEMP:   7;

ELBOW LAKE     FAIR       2  -6  69 N9        30.48S WCI -13
6HR MIN TEMP:  -2; 6HR MAX TEMP:   4;

WADENA         CLEAR      0  -9  65 NW9       30.43S WCI -16
DETROIT LAKES  PTCLDY     3  -4  72 NW9       30.46S HAZE    WCI -11
MOORHEAD       CLEAR      7  -2  66 NW7       30.53S WCI  -5
FERGUS FALLS   CLEAR      3  -8  60 N12       30.54R WCI -13
MORRIS MN      CLEAR      3  -6  66 NW13      30.49R WCI -14
STAPLES        CLEAR      1 -11  55 W9        30.43R WCI -14
$$
  *****  WEATHER ELSEWHERE ACROSS MINNESOTA  *****

CITY           SKY/WX    TMP DP  RH WIND       PRES   REMARKS
DULUTH         CLEAR      6 -11  45 NW9       30.32S WCI  -8
6HR MIN TEMP:   2; 6HR MAX TEMP:   8;

INTRNTL FALLS  PTCLDY     0 -14  51 W6        30.37S WCI -12
6HR MIN TEMP:  -1; 6HR MAX TEMP:   3;

ELY            CLEAR      1 -15  46 W7        30.31R WCI -11
CLOQUET        CLEAR      5 -13  43 W10       30.35S WCI -10
WHEATON        CLEAR      0  -8  71 NW10      30.55R WCI -17
BRAINERD       CLEAR      5 -11  47 NW7       30.41S WCI  -7
6HR MIN TEMP:   0; 6HR MAX TEMP:   7;

HIBBING        CLEAR      4 -13  45 W7        30.35S WCI  -8
6HR MIN TEMP:   1; 6HR MAX TEMP:   7; 6HR PCP: TRACE;

ALEXANDRIA     CLEAR      1  -9  62 NW10      30.44S WCI -15
6HR MIN TEMP:  -2; 6HR MAX TEMP:   3;

SAINT CLOUD    CLEAR      4  -8  57 NW10      30.44S WCI -11
6HR MIN TEMP:   2; 6HR MAX TEMP:   8;

MINNEAPOLIS    CLEAR      7  -8  50 NW10      30.44S WCI  -8
6HR MIN TEMP:   7; 6HR MAX TEMP:  11;

$$

  *****  WEATHER ACROSS SOUTH DAKOTA  *****

CITY           SKY/WX    TMP DP  RH WIND       PRES   REMARKS
SIOUX FALLS    PTCLDY     2  -5  72 NW14      30.50R WCI -16
6HR MIN TEMP:   2; 6HR MAX TEMP:   6;

BROOKINGS      NOT AVBL
WATERTOWN      CLEAR      1  -8  66 N14       30.46S WCI -17
6HR MIN TEMP:  -1; 6HR MAX TEMP:   3;

HURON          CLEAR      2  -8  63 N9        30.55S WCI -13
6HR MIN TEMP:   1; 6HR MAX TEMP:   6;

SISSETON         N/A      2  -7  66 N13       30.52S WCI -15
ABERDEEN       CLEAR      5  -7  57 NW10      30.55S WCI -10
6HR MIN TEMP:   1; 6HR MAX TEMP:   7;

MITCHELL       CLEAR      5  -4  66 NW12      30.56R WCI -11
PIERRE         CLEAR     10  -2  58 N8        30.51S WCI  -2
6HR MIN TEMP:   6; 6HR MAX TEMP:  13;

MOBRIDGE       CLEAR      8  -5  55 NW5       30.49S WCI   0
RAPID CITY     CLEAR      7  -4  60 NW9       30.39S WCI  -7
6HR MIN TEMP:   3; 6HR MAX TEMP:  16;

$$

  *****  SOME WEATHER IN NEARBY STATES *****

CITY           SKY/WX    TMP DP  RH WIND       PRES   REMARKS
GLASGOW MT     CLEAR     11  -7  44 S10       30.44F WCI  -3
6HR MIN TEMP:   3; 6HR MAX TEMP:  12;

GREAT FALLS MT CLEAR     15   6  67 SE16      30.17F WCI  -1
6HR MIN TEMP:  11; 6HR MAX TEMP:  16; 6HR PCP:  0.01;

CHEYENNE WY    LGT SNOW  10   3  73 E10       30.07S WCI  -4
6HR MIN TEMP:  10; 6HR MAX TEMP:  14; 6HR PCP:  0.03;

SCOTTSBLUFF NE CLOUDY    15   6  67 E9        30.28S WCI   3
6HR MIN TEMP:  14; 6HR MAX TEMP:  18; 6HR PCP: TRACE;

OMAHA NE       MOCLDY     9   2  73 N12       30.53S WCI  -6
6HR MIN TEMP:   7; 6HR MAX TEMP:  12; 6HR PCP: TRACE;

DES MOINES IA  PTCLDY     7  -6  55 NW14      30.50R WCI -10
6HR MIN TEMP:   7; 6HR MAX TEMP:  11; 6HR PCP: TRACE;

DAVENPORT IA   CLEAR      5  -4  66 NW12      30.41R WCI -11
6HR MIN TEMP:   5; 6HR MAX TEMP:  13;

CHICAGO IL     PTCLDY    11  -4  51 NW10      30.32R WCI  -3
6HR MIN TEMP:  10; 6HR MAX TEMP:  19; 6HR PCP: TRACE;

EAU CLAIRE WI  CLEAR      7 -10  46 NW3       30.39S
6HR MIN TEMP:   6; 6HR MAX TEMP:  10;

LA CROSSE WI   CLEAR      6  -6  57 NW8       30.42R WCI  -7
6HR MIN TEMP:   6; 6HR MAX TEMP:  14;

$$

  *****  SOME NATIONAL WEATHER *****

CITY           SKY/WX    TMP DP  RH WIND       PRES   REMARKS
LA GUARDIA NY  CLOUDY    25  13  60 NW10      30.05R WCI  15
6HR MIN TEMP:  24; 6HR MAX TEMP:  27;

RALEIGH NC     MOCLDY    34  28  79 CALM      30.07R
6HR MIN TEMP:  34; 6HR MAX TEMP:  35;

ATLANTA GA     CLOUDY    38  30  73 NW12      30.07R
6HR MIN TEMP:  37; 6HR MAX TEMP:  41;

NEW ORLEANS LA CLOUDY    48  32  53 N10       30.14R
6HR MIN TEMP:  42; 6HR MAX TEMP:  48;

OKLAHOMA CITY  MOCLDY    29  -1  27 N15G22    30.37S WCI  18
6HR MIN TEMP:  28; 6HR MAX TEMP:  33;

ALBUQUERQUE NM CLOUDY    35  21  56 E25G33    29.94R WCI  23
6HR MIN TEMP:  35; 6HR MAX TEMP:  42;

SALT LAKE CITY PTSUNNY   38  33  82 W8        29.90F
6HR MIN TEMP:  33; 6HR MAX TEMP:  39; 6HR PCP:  0.07;

LOS ANGELES CA PTSUNNY   62  51  67 SW10      29.85F


USA.gov is the U.S. government's official web portal to all federal, state and local government web resources and services.